Epoch 2016 Oct. 19.0 TT = JDT 2457680.5 T 2016 Oct. 27.66938 TT Rudenko q 2.2299917 (2000.0) P Q n 0.14982439 Peri. 92.77303 -0.95409013 -0.28168707 a 3.5108669 Node 70.88194 +0.21364161 -0.87824330 e 0.3648316 Incl. 6.18554 +0.20992684 -0.38644675 P 6.58 From 1470 observations 1984 Mar. 2-2020 Sept. 12, mean residual 0".7.
H = 14.5 G = 0.15 [ ,-200] ( - 2016 Apr. 10) m1 = 3.0 + 5 log d + 35 log r [-200, 170] (2016 Apr. 10 - 2017 Apr. 15) H = 14.5 G = 0.15 [ 170, ] (2017 Apr. 15 - )